Content
SEND FEEDBACK

Daily
Averages
Monthly
Summary
United States of America

SOUTH LAKE TAHOE - AIRPORT, CALIFORNIA


Home > North America > United States > California
Elevation: 6250 feet     Latitude: 38 54N     Longitude: 120 00W

WEATHER
 
SELECT A DAY
Number of Records: 174,306;   Date Range: 1/1/95 - 7/20/14
 
SHARE

PRINT THIS DATA

[ ← Previous Day ]
WEATHER ALMANAC - MARCH 5, 2013
[ Next Day → ]
[ °C ]   °F
Weather ElementAverageHighLow
Temperature41.6 °F48.9 °F (12:53 pm)30 °F (1:53 am)
Dewpoint24.6 °F28 °F (11:53 pm)16 °F (8:53 pm)
Humidity52.4 %85 % (1:53 am)36 % (8:53 pm)
Barometer29.82 in29.98 in (1:53 am)29.68 in (8:53 pm)
Wind Speed13.7 mph23 mph (8:53 pm)
Wind Gust41.4 mph (8:53 pm)
Weather ElementAverage
Visibility9.3 mi
Wind DirectionSSE (166.8 °)

Weather ElementTotal
Precipitation---
Heating Degree Days25.6 (Base 65)
Averaged from 22 records on March 5, 2013
WEATHER CONDITIONS BREAKOUT
WIND DIRECTION BREAKOUT
WEATHER BY HOUR - MARCH 5, 2013
[ °C ]   °F
Local TimeTemperatureDewpointHumidityBarometerVisibilityWind DirectionWind SpeedGust SpeedPrecipitationEventsConditions
1:53 AM30.0 °F26.1 °F85 %29.98 in10.0 miCalmClear
2:53 AM30.0 °F25.0 °F82 %29.96 in10.0 miCalmClear
5:53 AM39.0 °F25.0 °F57 %29.93 in10.0 miSouth (170°)8.1 mphPartly Cloudy
6:53 AM39.0 °F25.0 °F57 %29.94 in10.0 miSSW (200°)11.5 mph18.4 mphClear
7:53 AM39.9 °F26.1 °F58 %29.93 in10.0 miVariable5.8 mphClear
8:53 AM44.1 °F26.1 °F49 %29.93 in10.0 miSSW (200°)15.0 mph29.9 mphMostly Cloudy
9:53 AM46.9 °F26.1 °F44 %29.91 in10.0 miSouth (190°)17.3 mph27.6 mphScattered Clouds
10:53 AM46.9 °F25.0 °F42 %29.90 in10.0 miSSW (200°)18.4 mph32.2 mphScattered Clouds
11:53 AM48.0 °F25.0 °F41 %29.87 in10.0 miSSW (200°)16.1 mph35.7 mphScattered Clouds
12:53 PM48.9 °F24.1 °F38 %29.85 in10.0 miSouth (190°)11.5 mph28.8 mphMostly Cloudy
1:53 PM48.0 °F26.1 °F42 %29.82 in10.0 miSouth (180°)19.6 mph24.2 mphMostly Cloudy
2:53 PM46.9 °F25.0 °F42 %29.80 in10.0 miSSW (210°)11.5 mph24.2 mphMostly Cloudy
3:53 PM46.0 °F25.0 °F44 %29.78 in10.0 miSouth (190°)13.8 mph24.2 mphMostly Cloudy
4:53 PM44.1 °F24.1 °F45 %29.75 in10.0 miSouth (190°)16.1 mph39.1 mphMostly Cloudy
5:53 PM42.1 °F24.1 °F49 %29.75 in10.0 miSouth (180°)16.1 mph28.8 mphOvercast
6:53 PM41.0 °F24.1 °F51 %29.75 in10.0 miSSW (200°)8.1 mph25.3 mphOvercast
7:53 PM39.9 °F23.0 °F51 %29.71 in10.0 miSouth (190°)15.0 mph31.1 mphPartly Cloudy
8:53 PM41.0 °F16.0 °F36 %29.68 in10.0 miSouth (190°)23.0 mph41.4 mphClear
9:53 PM39.9 °F21.0 °F47 %29.68 in10.0 miSSW (200°)16.1 mph28.8 mphClear
10:53 PM41.0 °F24.1 °F51 %29.68 in10.0 miSouth (190°)21.9 mph39.1 mphOvercast
11:43 PM37.4 °F26.6 °F65 %29.78 in2.5 miSSW (200°)19.6 mph33.4 mph0.00 inSnowLight Snow
11:53 PM35.1 °F28.0 °F76 %29.73 in1.0 miSSW (200°)16.1 mph38.0 mph0.00 inSnowLight Snow
Hourly data recorded from KTVL, located miles away from South Lake Tahoe - Airport, California







STORIES FROM OUR PARTNERS